COSMOS 894

导读

COSMOS 894是苏联(CIS)于1977年2月21日08:00发射的人造卫星,隶属于冷战时期苏联规模庞大的“宇宙”(COSMOS)卫星系列。该系列涵盖军事侦察、空间科学探测等多种任务,多数军用卫星任务细节因保密未公开。作为美苏太空争霸阶段的产物,它体现了当时苏联在航天领域的部署能力,推动了苏联太空技术积累,最终完成任务后再入大气层销毁。

基本信息
目录编号:
9846
目录名称:
COSMOS 894
国际标识:
1977-013A
轨道中心:
EARTH
卫星名称:
COSMOS 894
卫星全名:
--
卫星状态:
在轨 (已飞行18053 天)
发射日期:
1977-02-21 UTC
国别 :
俄罗斯(独联体) (CIS)
星等 :
--
轨道信息
数据来源 国际轨道数据 AOE轨道数据
星历时间 2026-07-27T22:10:42+0800
7小时前
查看轨道信息
2026-07-23T00:00:00+0800
5天前
查看轨道信息
半长轴 7362.626km 7362.627km
偏心率 0.0031215 0.0031215
轨道倾角 82.941° 82.942°
近地点辐角 96.091° 108.620°
升交点赤经 67.288° 70.932°
平近点角 292.805° 53.662°
近地点 961.506km 961.507km
远地点 1007.472km 1007.473km
周期 104.787分钟 104.787分钟
每日圈数 13.742118 13.742116
详细信息
使用方式:
暂无
2D轨道图
3D轨道图
轨道高度分析图
轨道倾角分析图
轨道综合分析图
查看轨道综合分析图